Location: Unspecified
(42.5780°N, 0.0000°E)
Time: 00:35:05
(UTC+00:00)

COBE sensor cover - Visible Passes

Search period start: 05 April 2026 00:00
Search period end: 15 April 2026 00:00
Orbit: 814 x 832 km, 98.7° (Epoch: 28 March)

Date Brightness Start Highest point End Pass type
(mag) Time Alt. Az. Time Alt. Az. Time Alt. Az.
5 Apr ? 19:03:27 10° SW 19:06:33 15° W 19:09:41 10° NW visible
8 Apr ? 05:00:38 10° ENE 05:02:11 11° E 05:03:43 10° ESE visible
10 Apr ? 19:03:47 10° SW 19:06:53 15° W 19:09:58 10° NW visible
